Location: Newark
(31.5350°N, 35.0986°E)
Time: 21:30:30
(UTC+00:00)

Vanguard 1 - Pass Details

Date: 24 September 2019
Orbit: 653 x 3830 km, 34.2° (Epoch: 17 October)

Event Time Altitude Azimuth Distance (km) Brightness Sun altitude
Rises 23:23:45 0° 253° (WSW) 7,381 - -49.3°
Reaches altitude 10° 23:28:19 10° 254° (WSW) 6,597 - -48.6°
Exits shadow 23:48:10 72° 262° (W) 3,908 12.6 -45.3°
Maximum altitude 23:52:01 88° 345° (NNW) 3,726 12.6 -44.7°
Drops below altitude 10° 00:11:34 10° 78° (ENE) 5,625 14.5 -41.2°
Sets 00:15:06 0° 79° (E) 6,309 15.0 -40.6°
